Dewpoint
56 44 45 48 52 51 47 47 38 43 39 33 32 36 37 41 45 45 45 45 43 48 51 51 48 49 49 49 50 51 51 50 50 45 45 53 52 50 46 45 52 55 57 58 59 60 61 63 65 67 67 66 66 66 66 66 66 66 66 66 65 65 65 66 66 66 66 65 66 66 66 67 66 65 65 65 65 64 64 64 65 65 66 66 66 66 66 66 65 66 65 65 66 66 66 66 68
47 42 51 52 51 49 45 47 39 38 38 34 33 38 41 42 45 43 42 43 46 49 50 49 49 49 51 51 51 51 50 48 49 51 51 46 48 48 42 43 47 49 53 55 56 57 58 60 63 65 66 67 67 67 66 66 66 66 65 65 65 66 66 66 66 66 66 66 67 67 66 66 66 66 65 64 64 64 63 64 64 65 65 65 66 66 66 66 66 65 65 67 67 66 67 67 67
46 48 50 51 49 48 48 45 38 37 35 30 36 39 43 42 40 43 47 46 48 50 51 49 48 49 49 48 46 47 47 46 40 40 52 44 41 42 40 42 44 46 47 49 51 53 56 59 62 63 64 65 66 66 66 65 65 65 65 65 65 66 65 66 65 66 66 66 65 67 66 66 66 66 66 66 66 65 64 63 64 64 65 65 65 65 65 65 65 66 65 65 66 66 67 66 66
48 52 53 51 47 48 44 42 39 37 35 34 34 40 43 41 42 46 51 51 50 49 49 45 43 49 46 45 47 50 48 47 38 34 42 39 34 36 38 41 44 43 44 46 46 49 52 57 60 61 62 64 64 65 65 64 64 64 64 63 64 65 65 65 65 65 65 66 66 66 67 67 67 66 66 66 65 65 64 64 64 64 64 64 65 64 65 64 65 65 65 65 65 66 66 65 66
43 54 53 49 48 44 44 43 40 37 29 32 34 41 42 43 46 48 49 50 49 49 49 47 46 49 45 43 43 46 40 36 44 33 34 36 33 37 39 42 42 41 42 42 43 45 48 56 59 60 61 62 63 63 64 63 64 63 63 63 63 64 64 64 65 65 65 65 65 65 65 66 66 66 66 65 65 65 65 64 64 64 64 64 64 64 64 64 64 64 64 64 65 64 65 65 66
44 50 52 50 45 48 44 39 37 34 40 38 38 40 42 44 47 46 47 48 49 48 49 48 44 46 40 34 33 31 29 42 36 33 34 34 34 38 39 40 40 39 39 40 41 42 45 54 57 59 61 62 62 62 62 63 63 63 63 63 64 64 64 64 65 65 65 65 64 64 64 65 66 67 67 66 65 65 64 64 64 64 64 64 64 64 64 63 64 64 63 63 64 64 64 64 64
50 49 49 48 47 47 42 35 35 36 40 41 40 41 42 42 46 46 45 45 48 47 50 48 44 42 39 34 33 28 27 27 32 31 32 33 35 37 39 36 38 37 36 37 38 39 42 51 55 58 60 61 61 62 62 62 62 62 63 63 64 64 64 64 65 65 65 65 64 64 65 65 65 66 65 65 65 64 64 63 63 64 64 64 64 63 63 63 63 63 63 62 63 63 64 64 63
53 49 49 45 42 42 39 40 38 39 40 41 39 39 41 45 45 44 45 42 44 41 47 49 45 43 45 43 39 28 27 26 27 29 31 32 35 36 37 34 34 34 35 35 36 37 43 48 52 56 58 59 61 61 61 61 61 62 63 63 63 63 63 63 64 64 64 64 65 65 65 65 65 65 65 64 64 64 64 63 63 63 64 63 63 64 63 63 62 63 63 62 63 62 62 63 63
50 47 51 47 38 43 39 37 39 41 39 41 39 39 45 46 47 46 44 45 46 41 39 39 45 41 45 39 37 33 27 26 26 29 28 30 33 34 35 33 32 33 34 33 33 35 36 44 49 54 56 58 59 60 61 61 61 61 61 62 62 62 63 63 63 63 63 64 64 65 64 64 65 64 64 64 63 62 62 63 64 64 63 63 63 63 62 62 63 62 62 62 61 61 62 62 63
47 48 40 42 42 34 36 37 36 39 37 38 36 40 45 46 47 43 44 44 44 40 36 36 42 42 42 38 33 28 28 26 25 26 26 29 32 32 32 32 31 31 31 32 32 33 34 41 45 50 54 56 58 58 60 60 60 61 61 61 62 62 62 62 63 63 63 63 64 64 64 64 64 64 63 62 60 58 58 61 62 62 62 61 60 62 62 62 62 62 62 61 60 61 61 60 62
40 43 47 37 32 29 30 33 37 38 37 37 32 29 33 41 41 41 44 43 40 41 36 32 43 44 41 35 31 30 28 25 24 25 26 28 31 30 30 31 31 30 30 31 32 32 32 35 42 47 50 53 55 57 58 58 59 60 60 61 61 61 62 62 63 63 62 63 63 64 64 64 64 63 61 60 58 56 55 60 62 61 61 61 59 59 62 62 62 60 61 60 60 61 60 60 60
37 37 42 32 29 26 27 28 37 37 35 31 29 28 32 36 39 40 42 41 33 30 27 28 36 32 40 39 35 29 28 24 24 24 26 26 28 29 30 29 30 29 30 29 32 31 33 35 39 44 47 51 53 55 55 56 57 58 59 60 60 60 61 62 63 62 62 62 63 64 64 63 62 61 60 59 57 56 55 60 60 59 60 61 59 59 62 61 61 62 61 60 60 60 60 59 59
38 43 36 29 32 29 37 34 36 37 33 28 28 27 28 31 36 39 32 31 33 32 28 22 21 24 38 38 33 27 25 23 23 23 23 24 26 26 28 28 31 31 29 31 30 29 32 33 37 40 44 49 52 53 53 54 55 57 57 58 58 59 59 60 61 63 63 63 63 63 62 62 62 61 59 56 56 57 59 60 59 58 59 61 60 60 62 62 61 61 61 57 58 60 59 59 60
35 43 35 30 40 37 33 32 36 35 32 25 22 24 25 29 24 24 28 25 19 20 21 21 22 24 30 33 29 26 22 23 21 22 22 24 26 25 26 26 27 27 29 27 28 28 30 31 33 37 39 44 49 50 52 53 53 55 55 56 56 57 57 58 58 59 62 63 62 62 62 61 62 60 59 58 59 59 60 60 60 58 59 61 61 61 61 61 60 60 60 59 60 60 59 59 60
41 43 38 38 35 36 38 29 30 31 31 24 21 22 20 19 18 19 19 19 19 19 20 22 21 23 22 23 22 21 21 21 21 22 23 24 25 25 26 26 26 27 27 25 24 26 26 28 31 35 38 42 47 48 49 49 51 52 53 54 54 54 55 56 56 56 57 57 58 58 59 59 60 60 60 59 59 59 60 59 58 58 60 61 61 60 60 60 60 60 60 60 60 59 59 59 59
43 41 39 33 31 33 35 33 33 30 26 20 20 20 19 19 19 21 20 20 19 20 20 19 21 20 20 19 19 20 20 20 20 19 21 24 25 25 24 23 24 24 27 26 22 24 25 26 29 33 34 39 45 47 47 48 49 50 51 52 52 52 52 53 53 53 54 55 56 56 57 58 59 59 60 58 61 61 60 60 61 61 61 61 60 61 61 61 61 59 59 60 59 59 58 58 57
42 42 32 31 27 29 32 30 31 22 24 20 18 18 21 19 20 20 20 20 19 19 19 19 19 19 19 19 19 19 19 19 21 18 19 20 21 21 23 22 24 23 23 24 23 21 24 25 28 31 33 37 43 45 45 46 47 48 49 50 50 50 50 50 51 51 51 52 53 54 55 56 57 58 59 58 59 59 59 58 59 59 60 60 60 60 60 60 59 59 58 60 59 57 56 56 56
41 31 28 26 27 26 29 28 29 22 23 21 18 17 19 18 18 20 20 20 19 19 19 19 19 18 19 18 18 18 17 16 15 15 15 17 18 17 19 19 18 20 22 23 21 19 22 24 26 28 31 33 40 43 44 45 45 46 46 46 46 47 47 47 46 47 47 49 50 51 53 53 54 56 56 56 58 58 59 57 58 59 59 59 60 59 59 60 58 58 58 59 56 55 54 54 54
36 32 27 16 27 28 31 28 23 20 21 19 15 16 16 15 18 17 18 19 20 19 19 19 18 18 18 17 16 15 14 13 13 12 12 13 12 12 12 15 17 17 19 19 20 18 19 21 23 26 29 32 38 41 42 43 43 43 44 43 44 45 45 45 43 43 43 44 46 48 49 51 54 54 53 54 55 57 58 57 56 58 58 57 58 59 59 59 59 57 59 57 55 54 53 52 51
36 33 24 23 27 27 32 30 23 20 17 15 15 15 16 16 14 15 18 18 19 19 19 19 17 17 16 15 15 13 12 11 12 12 10 10 11 9 10 9 10 15 16 17 19 17 17 18 20 24 28 31 35 39 40 40 41 41 41 41 41 41 42 42 42 42 42 41 43 45 46 48 50 51 51 51 52 54 55 56 56 56 56 57 55 59 59 58 59 59 58 56 53 52 52 50 51
33 30 25 26 28 23 29 30 24 20 16 14 13 14 14 16 16 17 17 15 17 17 18 18 17 17 16 14 13 12 10 10 11 12 10 9 8 8 7 8 10 11 15 15 17 15 16 15 18 23 25 28 31 35 37 37 38 38 39 39 39 38 39 38 41 42 40 39 40 41 44 45 47 48 49 50 51 51 52 53 54 54 55 56 54 59 60 59 59 58 56 53 53 53 53 54 50
33 31 31 29 30 23 27 31 26 20 16 13 13 13 14 17 17 17 15 14 17 17 18 18 18 17 15 14 12 11 9 9 9 10 10 9 9 7 7 9 9 12 14 12 14 14 15 14 16 21 23 26 28 31 33 35 35 35 36 37 36 36 36 35 34 35 40 42 42 41 41 42 44 45 46 47 49 49 50 50 51 52 53 53 52 55 57 58 57 56 55 53 52 51 52 51 53
24 30 28 31 30 26 18 26 24 16 13 13 13 15 16 16 16 17 17 17 18 18 18 18 17 15 14 13 12 9 10 9 9 9 9 10 9 9 7 7 8 9 12 12 15 13 14 12 14 19 21 24 27 28 30 32 32 31 33 34 34 34 34 33 32 32 32 31 37 41 43 43 43 45 45 45 46 47 48 49 50 50 50 51 50 52 53 53 53 53 54 53 51 48 47 47 48
18 21 21 25 29 24 17 22 19 16 13 14 15 16 15 14 14 17 17 18 18 18 17 16 15 15 13 10 10 10 10 10 10 9 9 9 9 9 9 8 8 9 12 12 12 13 15 13 11 13 17 21 25 26 27 28 29 30 30 32 31 32 30 30 30 30 31 29 31 30 33 41 42 42 44 45 46 46 46 47 48 49 49 49 49 50 50 52 51 51 50 49 47 48 48 48 50
15 14 16 19 22 21 16 15 14 14 14 14 14 14 14 15 15 17 17 17 17 16 15 14 13 13 11 10 10 10 10 10 10 12 11 9 9 11 9 9 9 10 9 10 13 12 11 13 10 12 16 17 20 24 24 24 26 28 28 27 28 32 28 28 28 28 26 26 27 29 30 29 36 40 40 42 44 44 45 46 46 46 47 48 49 50 50 50 50 49 48 48 45 45 45 45 44
15 14 15 15 15 15 14 13 13 14 14 15 15 15 16 16 16 16 17 17 16 15 14 13 12 10 10 10 12 10 9 10 11 13 12 12 11 9 10 9 9 8 8 9 13 12 11 8 11 9 11 14 16 20 21 22 22 23 24 24 25 26 26 26 26 24 24 24 24 28 28 28 28 29 33 38 41 42 43 43 43 44 45 46 48 49 50 50 49 49 48 47 46 45 42 41 40
17 16 16 15 16 15 15 13 13 14 14 15 14 14 14 15 14 13 17 16 15 13 12 12 10 9 10 10 11 10 10 11 11 9 11 14 12 11 11 11 10 10 10 9 11 11 12 8 10 9 10 17 14 14 19 17 19 20 22 20 22 23 23 22 20 21 21 20 22 26 26 27 27 28 28 31 34 38 40 41 41 42 42 43 46 47 48 49 49 49 48 47 45 44 44 41 38
17 16 17 14 15 15 15 13 12 13 12 14 14 13 14 15 16 15 16 16 15 12 11 11 9 9 9 11 11 12 10 11 11 10 10 11 13 11 12 12 11 11 12 11 13 12 9 9 9 10 9 11 11 12 16 17 17 18 20 17 19 21 22 18 18 19 19 18 21 23 22 23 24 25 28 29 30 33 36 38 39 39 40 41 44 45 47 48 48 48 47 46 45 44 44 44 43
16 17 8 11 13 13 15 13 13 13 12 14 13 12 12 16 15 16 16 15 14 12 10 10 9 9 10 10 10 11 11 12 12 11 12 12 14 13 10 13 12 11 12 11 12 12 10 11 10 9 8 10 9 9 11 14 18 17 17 17 18 21 17 17 17 17 18 18 21 22 22 22 21 22 24 27 28 28 30 32 32 33 36 39 42 42 43 45 46 47 47 46 45 44 44 43 42
16 14 14 7 12 11 13 13 13 12 13 13 11 6 11 14 15 16 16 14 13 11 9 8 8 9 10 10 10 10 12 11 12 14 14 13 13 13 12 12 14 13 13 13 10 11 12 13 9 10 12 9 12 10 10 11 15 17 16 15 17 17 14 14 16 16 17 15 18 21 23 22 21 20 22 24 25 25 27 28 28 28 31 35 37 38 41 41 42 44 45 45 44 43 43 43 42
10 15 17 7 7 5 14 13 12 11 13 13 13 8 13 14 16 17 16 14 12 10 9 7 8 8 10 11 10 9 11 13 12 12 13 14 13 14 13 13 13 13 13 14 12 11 10 12 12 7 11 10 11 8 9 10 11 16 15 16 16 19 16 15 14 15 14 14 15 15 21 21 21 22 22 22 23 22 22 23 25 25 28 33 34 34 36 36 39 40 42 43 43 44 44 42 41
16 9 8 18 5 14 14 17 14 10 12 12 14 8 14 13 15 16 16 15 13 11 9 7 7 8 9 9 8 7 9 12 13 12 13 14 15 15 16 15 15 15 14 14 13 11 8 13 14 9 9 9 12 14 12 11 9 13 15 17 15 19 14 15 14 15 14 13 13 16 19 20 20 22 21 22 21 21 21 20 21 24 27 30 32 33 33 33 35 36 38 39 40 41 42 42 42
16 8 3 6 9 14 12 13 15 14 11 13 12 14 11 13 15 16 16 15 13 11 9 8 8 8 8 8 9 8 9 11 12 12 13 15 16 15 15 17 16 15 15 14 13 11 9 11 15 12 8 8 8 9 11 15 11 11 13 15 15 16 12 13 12 14 14 14 13 15 18 18 19 20 20 21 19 19 18 20 20 23 25 27 29 29 31 32 31 33 33 37 38 39 40 41 42
6 18 1 16 7 14 12 13 14 14 11 12 14 13 14 14 15 16 16 16 14 11 9 8 8 8 10 9 8 8 8 10 9 11 14 14 16 16 15 19 18 16 15 16 14 11 10 13 15 17 15 10 8 10 10 11 9 9 13 15 16 13 15 13 12 13 12 13 13 14 19 17 18 19 19 19 17 18 18 19 20 21 22 23 25 27 27 29 30 31 31 34 35 35 37 39 39
1 9 8 14 15 17 14 12 16 13 20 14 12 14 14 15 15 16 16 16 13 12 10 8 8 8 9 8 8 8 8 10 9 12 15 17 17 17 18 20 18 18 17 15 15 13 11 11 14 14 13 10 8 9 13 12 13 9 8 9 11 10 14 14 13 11 12 11 13 17 17 14 16 19 20 18 16 15 15 16 19 20 20 21 22 23 23 25 27 29 30 31 33 34 36 37 37
13 12 13 13 9 12 11 13 18 19 14 16 13 13 14 15 15 16 16 16 14 13 12 11 10 9 9 9 8 8 10 8 13 16 17 17 18 19 18 18 18 18 16 14 18 16 13 12 12 14 11 10 12 10 12 12 11 9 9 6 8 9 9 12 13 11 12 12 16 14 15 15 16 17 19 17 16 14 14 14 17 18 19 19 19 20 19 21 24 27 28 30 31 32 34 34 34
16 19 17 16 14 12 13 18 19 22 19 14 17 16 14 15 15 16 16 16 15 13 12 11 10 8 8 8 8 10 9 8 17 19 18 19 20 20 21 19 18 16 17 16 16 16 15 14 15 12 12 12 11 11 11 10 10 9 9 5 3 3 8 7 5 8 11 11 15 14 15 13 17 17 17 17 16 14 13 14 15 16 17 17 17 18 19 21 21 24 25 26 29 30 31 32 33
17 16 14 14 13 8 11 14 16 19 22 14 16 15 16 16 16 16 16 15 14 13 12 11 10 10 8 10 10 11 10 15 16 15 15 17 16 20 21 20 21 14 15 15 17 15 16 15 15 12 12 12 13 14 14 10 12 11 9 8 4 6 6 5 7 6 10 13 12 14 13 14 16 16 16 17 15 15 14 12 13 14 15 15 16 16 18 18 18 20 23 22 25 27 28 31 31
17 12 11 11 10 14 15 16 16 14 19 13 15 14 15 15 15 16 15 14 15 14 13 12 10 10 9 9 11 12 11 11 10 10 13 13 18 20 18 17 16 17 17 16 17 17 17 18 17 15 16 17 15 17 16 12 10 13 8 5 4 6 9 6 8 11 10 10 10 12 12 13 14 14 15 16 15 14 13 12 11 11 14 16 13 13 14 14 16 18 19 20 20 23 25 29 29
13 10 8 5 13 14 12 16 15 15 14 14 16 13 15 16 16 16 17 15 17 18 17 17 16 11 9 9 10 10 9 10 10 9 8 10 13 15 16 18 16 20 17 16 15 16 16 17 17 18 17 16 17 17 16 16 14 12 15 14 13 7 4 11 8 7 10 8 9 9 10 12 13 13 14 15 13 13 13 12 11 11 12 13 12 12 12 12 14 15 16 16 19 17 21 24 27
15 14 6 8 11 12 11 12 13 19 19 18 16 13 14 15 14 15 17 18 18 19 18 18 18 18 16 17 17 16 10 11 10 8 9 9 11 12 14 16 19 18 18 16 17 16 15 18 19 19 17 17 18 16 16 17 17 17 16 17 17 15 14 13 8 8 7 9 9 8 7 10 11 12 13 14 14 13 13 12 13 11 12 12 11 11 9 11 13 13 14 14 16 17 17 21 21
9 14 15 11 12 12 13 12 7 6 8 14 15 3 4 11 14 15 17 18 17 18 19 18 18 17 17 14 14 14 15 15 13 10 10 11 12 13 15 18 18 17 15 17 17 17 18 19 19 19 19 19 18 19 19 17 16 14 14 15 14 14 10 9 7 7 8 5 5 5 9 6 9 10 12 14 14 13 12 13 14 11 11 12 12 10 9 10 11 12 12 12 14 16 17 17 15
5 10 15 15 13 11 10 9 8 5 5 10 14 -0 7 10 12 14 16 17 16 18 19 18 18 17 17 16 13 13 12 12 15 16 16 15 15 16 15 15 17 16 15 19 18 19 20 20 20 20 20 19 18 18 20 17 16 14 14 15 14 13 12 13 6 6 10 6 11 6 8 6 9 6 6 11 13 14 13 13 13 12 11 11 10 9 7 9 9 12 12 12 11 11 15 13 14
2 12 16 15 13 11 10 9 6 5 8 11 8 5 -0 6 11 16 16 16 16 17 18 18 18 18 18 17 15 14 13 12 14 15 14 15 16 16 14 16 16 18 21 22 22 21 20 19 21 21 20 20 20 20 19 19 18 17 17 16 15 15 14 11 8 5 5 9 8 7 6 5 7 5 6 8 11 12 13 11 11 11 11 11 10 10 8 8 10 10 11 10 9 8 12 11 13
11 17 18 14 14 12 11 9 7 7 5 3 5 5 3 8 10 16 16 11 11 11 14 18 18 19 18 19 19 18 17 19 18 17 16 16 16 17 18 19 21 22 22 20 19 19 18 18 20 20 18 18 18 18 19 18 18 17 17 16 15 16 14 15 13 13 11 11 9 6 5 5 6 6 6 6 11 11 11 11 11 9 8 8 10 9 9 9 9 8 9 6 8 7 9 9 9
19 18 18 15 14 13 12 10 9 9 5 5 3 3 -2 3 7 9 11 5 2 6 10 16 19 20 20 21 21 21 22 22 22 20 20 21 20 21 23 22 22 21 21 20 18 16 16 17 18 18 16 16 16 16 17 17 17 17 16 15 15 14 14 14 14 13 11 9 7 7 5 4 4 4 4 6 10 11 10 10 10 9 6 4 7 8 9 7 8 8 9 9 9 7 6 7 10
20 15 10 9 9 8 6 6 8 8 -1 4 1 1 -4 -11 7 7 4 2 5 5 8 13 18 20 21 22 22 23 22 22 22 23 22 22 22 22 22 22 21 19 18 17 18 15 15 17 16 15 15 14 14 15 15 16 16 15 15 15 15 14 13 13 12 12 11 9 7 6 6 5 5 4 6 4 6 9 10 10 5 4 4 6 4 6 5 4 4 7 6 8 5 6 8 8 10
15 9 5 0 -0 4 -1 1 -1 -2 -3 3 2 -1 2 -14 4 7 9 13 18 15 12 13 15 18 22 23 23 23 22 23 23 22 22 23 23 23 22 20 18 17 16 15 16 16 16 14 14 13 13 13 13 13 13 13 14 15 15 14 13 13 13 13 12 10 11 10 10 7 6 4 4 4 4 3 3 5 8 6 9 5 6 6 4 4 4 4 5 5 2 1 0 4 4 7 8
9 3 3 -3 -9 -9 -3 -14 -6 -10 -8 3 1 -1 -11 -11 6 9 11 14 16 19 19 18 20 19 22 23 24 24 24 23 23 23 23 24 23 22 20 17 17 17 15 14 14 14 13 13 12 11 11 11 11 12 12 12 11 11 11 11 11 13 13 14 14 12 13 10 10 9 8 6 5 4 4 3 2 3 4 3 3 2 2 5 6 6 7 8 4 3 1 2 -0 0 1 1 2
5 -5 2 -8 -15 -9 -7 -8 -4 -6 -13 -3 2 -5 -12 5 9 13 13 16 18 19 20 21 21 20 21 22 23 22 24 23 23 23 23 23 21 19 18 17 15 15 13 13 13 13 13 12 11 11 10 11 11 11 11 9 9 9 8 9 9 9 11 13 13 11 12 12 11 10 9 8 7 6 5 4 4 2 4 5 4 2 5 7 7 6 6 6 7 1 1 -0 -0 1 2 1 1
4 6 3 2 -3 -6 -10 -6 -9 -11 -5 -8 -4 -1 -3 -4 6 14 15 17 17 18 18 20 21 21 22 22 22 22 22 22 22 21 19 19 18 18 17 16 16 14 13 13 12 12 12 11 11 10 10 11 11 11 11 9 8 8 7 8 9 10 11 11 11 12 12 12 12 11 11 10 9 8 7 8 7 4 3 3 3 3 2 3 4 4 7 4 6 2 1 0 0 2 -1 -1 -1
7 5 5 2 3 3 -10 3 -2 1 -4 -8 3 -3 2 3 12 16 16 15 15 17 17 19 19 19 21 20 20 19 18 17 17 17 17 17 17 17 16 15 14 13 13 12 12 13 13 12 11 11 10 11 11 10 8 7 6 5 5 7 10 13 13 11 11 11 12 12 12 11 11 11 10 10 9 10 9 6 4 3 4 3 2 2 2 2 1 1 1 1 1 -0 -1 5 -2 -2 -2
-1 3 5 5 7 0 5 1 -1 -2 -2 -5 4 -5 -3 2 8 13 14 14 13 14 14 16 16 17 17 15 16 14 15 15 15 16 16 17 17 16 15 14 13 12 12 12 12 13 13 12 11 10 10 9 8 7 6 5 3 3 6 10 12 11 10 10 11 12 13 13 13 13 12 12 11 11 10 10 10 8 7 5 4 3 3 2 1 1 2 1 1 1 1 -0 -1 -1 -2 -2 -2
-3 -1 1 8 8 -1 4 -15 -0 -5 -11 -16 -6 -2 1 -8 -7 11 11 12 10 12 10 10 12 13 10 14 13 13 14 14 14 14 15 16 16 14 14 14 12 12 12 12 12 13 12 11 10 10 8 6 5 3 2 3 3 6 10 12 10 10 10 11 12 13 14 14 14 14 14 13 13 13 12 11 11 10 9 9 5 3 3 2 1 1 1 1 1 1 0 -0 -1 -1 -2 -2 -2
-0 -0 3 -5 -1 -6 -6 -5 -15 -7 -10 -13 -8 -4 -2 -1 2 8 9 9 8 9 9 7 6 8 9 10 12 12 13 14 13 14 14 16 16 15 14 13 12 12 12 12 13 12 11 9 9 9 7 5 3 2 3 4 7 10 10 9 9 9 10 10 10 10 11 11 12 13 14 14 14 15 16 16 14 13 11 9 7 4 3 2 1 1 1 1 0 0 -0 -1 -1 -2 -2 -2 -2
6 5 -1 6 -5 6 -7 -2 1 -9 -14 -8 -5 -1 -14 -4 -6 6 5 9 7 7 7 4 5 6 8 9 10 12 13 13 12 12 12 15 15 13 12 12 12 12 11 12 11 9 7 8 7 6 5 2 1 2 4 5 8 8 7 8 9 8 8 8 8 8 8 8 9 10 10 12 13 14 14 15 15 13 13 11 9 6 5 3 2 1 1 0 -0 -0 -1 -1 -1 -3 -3 -3 -3
-7 -5 -2 4 8 -0 1 3 -3 -4 -9 -11 -13 -11 -5 -14 -4 3 9 8 6 6 4 5 5 5 7 8 9 11 11 12 12 13 12 14 14 12 12 12 12 11 10 10 9 7 7 6 5 4 2 1 0 2 4 4 5 5 8 8 7 6 5 5 3 3 3 6 8 9 9 10 11 12 13 14 13 12 12 12 10 9 7 5 3 1 1 0 -0 -0 -1 -1 -2 -3 -3 -3 -3
-4 -7 -3 1 3 -3 -6 -5 6 2 -9 -9 -11 -10 -6 -8 2 6 8 8 7 7 5 6 5 5 5 7 10 10 11 11 12 13 12 14 13 12 11 10 9 8 8 8 7 6 5 5 3 2 0 -0 1 3 4 4 2 5 7 7 6 5 4 2 2 2 3 4 5 7 6 8 9 10 11 12 12 12 13 12 11 10 8 6 4 2 1 0 -0 -0 -1 -1 -2 -2 -3 -3 -2